Location: Praha
(50.0830°N, 14.4670°E)
Time: 16:49:48
(UTC+01:00)

ISS - Pass Details

Date: 24 November 2018
Orbit: 401 x 408 km, 51.6° (Epoch: 20 November)

Event Time Altitude Azimuth Distance (km) Brightness Sun altitude
Rises 18:31:10 0° 212° (SSW) 2,304 0.5 -22.4°
Reaches altitude 10° 18:33:30 10° 196° (SSW) 1,449 -0.8 -22.7°
Enters shadow 18:34:03 13° 190° (S) 1,277 -1.2 -22.8°
